KLM77F EHAM-LOWW

Flight info

Callsign KLM77F
Flight time 1h 19m
Altitude 35000
Route EDUPO Z739 MISGO DCT EKSAK DCT SWALM DCT GASKA DCT ENITA DCT ETVIS DCT BUDWA DCT BUDEX BUDEX2W
Aircraft B738/M-SDE2E3FGHIRWXY/LB1

Departure

Time 2026-05-04 09:42
Airport Amsterdam Airport Schiphol (EHAM)

Arrival

Time 2026-05-04 11:02
Airport Vienna International Airport (LOWW)
Time Latitude Longitude Altitude Speed Heading
2026-05-04 09:09 52.30667 4.76592 -2 ft 0 kts 248°
2026-05-04 09:34 52.30666 4.76741 -2 ft 1 kts 327°
2026-05-04 09:37 52.30698 4.76745 -2 ft 5 kts 36°
2026-05-04 09:37 52.30707 4.76795 -2 ft 5 kts 106°
2026-05-04 09:38 52.30682 4.76841 -2 ft 7 kts 146°
2026-05-04 09:38 52.30633 4.76865 -2 ft 9 kts 170°
2026-05-04 09:38 52.30571 4.76904 -2 ft 10 kts 147°
2026-05-04 09:38 52.30515 4.76963 -2 ft 10 kts 147°
2026-05-04 09:39 52.30460 4.77020 -2 ft 9 kts 147°
2026-05-04 09:39 52.30430 4.77106 -2 ft 9 kts 91°
2026-05-04 09:39 52.30455 4.77197 -2 ft 9 kts 57°
2026-05-04 09:39 52.30489 4.77279 -2 ft 9 kts 56°
2026-05-04 09:40 52.30524 4.77367 -2 ft 11 kts 57°
2026-05-04 09:40 52.30561 4.77470 -2 ft 9 kts 66°
2026-05-04 09:40 52.30547 4.77561 -2 ft 9 kts 141°
2026-05-04 09:40 52.30495 4.77609 -2 ft 9 kts 151°
2026-05-04 09:41 52.30441 4.77642 -2 ft 8 kts 183°
2026-05-04 09:42 52.27648 4.70388 2127 ft 190 kts 237°
2026-05-04 09:43 52.26761 4.68599 2364 ft 215 kts 217°
2026-05-04 09:43 52.25351 4.67650 2769 ft 226 kts 184°
2026-05-04 09:43 52.23815 4.68160 3359 ft 232 kts 148°
2026-05-04 09:43 52.22746 4.70045 4123 ft 230 kts 119°
2026-05-04 09:44 52.22022 4.72385 4883 ft 233 kts 116°
2026-05-04 09:44 52.21312 4.74788 5602 ft 236 kts 117°
2026-05-04 09:44 52.20569 4.77227 6255 ft 244 kts 119°
2026-05-04 09:46 52.19189 4.98146 10366 ft 311 kts 72°
2026-05-04 09:46 52.19868 5.01592 10530 ft 334 kts 72°
2026-05-04 09:46 52.20591 5.05327 10702 ft 356 kts 73°
2026-05-04 09:47 52.21347 5.09301 10939 ft 374 kts 73°
2026-05-04 09:47 52.22120 5.13403 11414 ft 382 kts 73°
2026-05-04 09:49 52.17723 5.41173 15943 ft 398 kts 129°
2026-05-04 09:49 52.16090 5.44855 16603 ft 401 kts 128°
2026-05-04 09:49 52.14459 5.48575 17230 ft 405 kts 128°
2026-05-04 09:51 52.04281 5.71339 20615 ft 423 kts 135°
2026-05-04 09:51 52.02315 5.74931 21127 ft 425 kts 136°
2026-05-04 09:51 52.00350 5.78488 21612 ft 429 kts 136°
2026-05-04 09:51 51.98369 5.82140 22087 ft 432 kts 135°
2026-05-04 09:52 51.96386 5.85842 22557 ft 435 kts 135°
2026-05-04 09:52 51.94392 5.89565 22990 ft 438 kts 136°
2026-05-04 09:52 51.92404 5.93267 23423 ft 441 kts 136°
2026-05-04 09:52 51.90374 5.97041 23872 ft 444 kts 136°
2026-05-04 09:53 51.88336 6.00826 24283 ft 446 kts 136°
2026-05-04 09:53 51.86286 6.04625 24674 ft 449 kts 136°
2026-05-04 09:53 51.84221 6.08433 25084 ft 451 kts 137°
2026-05-04 09:53 51.82161 6.12205 25473 ft 453 kts 137°
2026-05-04 09:54 51.80059 6.16046 25847 ft 455 kts 137°
2026-05-04 09:54 51.77952 6.19892 26231 ft 457 kts 137°
2026-05-04 09:54 51.75837 6.23751 26597 ft 459 kts 137°
2026-05-04 09:54 51.73713 6.27627 26934 ft 461 kts 137°
2026-05-04 09:55 51.71603 6.31477 27259 ft 463 kts 137°
2026-05-04 09:55 51.69459 6.35388 27606 ft 465 kts 137°
2026-05-04 09:55 51.67312 6.39298 27906 ft 467 kts 137°
2026-05-04 09:55 51.65147 6.43231 28186 ft 469 kts 137°
2026-05-04 09:56 51.62981 6.47161 28500 ft 470 kts 138°
2026-05-04 09:56 51.60826 6.51061 28801 ft 472 kts 138°
2026-05-04 09:56 51.58640 6.55013 29099 ft 473 kts 138°
2026-05-04 09:56 51.56453 6.58961 29488 ft 472 kts 138°
2026-05-04 09:57 51.54272 6.62898 29922 ft 469 kts 138°
2026-05-04 09:57 51.52103 6.66804 30305 ft 468 kts 138°
2026-05-04 09:57 51.49929 6.70711 30593 ft 469 kts 138°
2026-05-04 09:57 51.47774 6.74580 30855 ft 470 kts 138°
2026-05-04 09:58 51.45591 6.78497 31202 ft 469 kts 138°
2026-05-04 09:58 51.43408 6.82405 31567 ft 467 kts 137°
2026-05-04 09:58 51.41399 6.86444 31862 ft 474 kts 129°
2026-05-04 10:00 51.33101 7.21464 33992 ft 480 kts 114°
2026-05-04 10:00 51.31996 7.26515 34297 ft 479 kts 114°
2026-05-04 10:02 51.24166 7.61699 34983 ft 479 kts 114°
2026-05-04 10:04 51.16319 7.96405 35003 ft 475 kts 114°
2026-05-04 10:04 51.14050 8.06331 35007 ft 476 kts 114°
2026-05-04 10:05 51.11773 8.16243 35015 ft 477 kts 114°
2026-05-04 10:05 51.09499 8.26110 35008 ft 478 kts 114°
2026-05-04 10:06 51.07194 8.36060 35013 ft 479 kts 115°
2026-05-04 10:06 51.04872 8.46042 35014 ft 480 kts 115°
2026-05-04 10:08 50.95237 8.73023 35016 ft 467 kts 133°
2026-05-04 10:08 50.93208 8.77072 35022 ft 467 kts 133°
2026-05-04 10:08 50.89185 8.85192 35022 ft 467 kts 133°
2026-05-04 10:09 50.85191 8.93317 35014 ft 467 kts 133°
2026-05-04 10:09 50.81214 9.01392 35021 ft 467 kts 133°
2026-05-04 10:10 50.77215 9.09486 35019 ft 466 kts 133°
2026-05-04 10:10 50.73237 9.17506 35017 ft 466 kts 133°
2026-05-04 10:11 50.69696 9.26140 35028 ft 471 kts 122°
2026-05-04 10:11 50.66674 9.35351 35024 ft 472 kts 121°
2026-05-04 10:12 50.63682 9.44489 35035 ft 471 kts 122°
2026-05-04 10:12 50.60626 9.53636 35028 ft 471 kts 122°
2026-05-04 10:13 50.57542 9.62753 35025 ft 472 kts 122°
2026-05-04 10:13 50.54465 9.71817 35028 ft 472 kts 122°
2026-05-04 10:14 50.51364 9.80925 35030 ft 472 kts 122°
2026-05-04 10:16 50.38911 10.17187 35026 ft 472 kts 122°
2026-05-04 10:16 50.35775 10.26242 35028 ft 471 kts 122°
2026-05-04 10:17 50.32924 10.35509 35031 ft 473 kts 117°
2026-05-04 10:19 50.22280 10.73140 35033 ft 474 kts 118°
2026-05-04 10:19 50.19559 10.82554 35025 ft 475 kts 118°
2026-05-04 10:20 50.16828 10.91968 35028 ft 476 kts 118°
2026-05-04 10:20 50.14105 11.01321 35024 ft 476 kts 118°
2026-05-04 10:21 50.11360 11.10719 35036 ft 476 kts 118°
2026-05-04 10:21 50.08599 11.20126 35053 ft 476 kts 118°
2026-05-04 10:22 50.04465 11.34149 35058 ft 477 kts 118°
2026-05-04 10:23 50.01679 11.43555 35058 ft 478 kts 118°
2026-05-04 10:25 49.90938 11.79483 35076 ft 478 kts 117°
2026-05-04 10:25 49.88133 11.88780 35082 ft 479 kts 117°
2026-05-04 10:26 49.85294 11.98147 35101 ft 479 kts 118°
2026-05-04 10:26 49.82470 12.07438 35089 ft 480 kts 118°
2026-05-04 10:27 49.79616 12.16792 35092 ft 479 kts 118°
2026-05-04 10:27 49.76762 12.26113 35086 ft 479 kts 118°
2026-05-04 10:28 49.73913 12.35374 35083 ft 479 kts 118°
2026-05-04 10:28 49.71043 12.44689 35073 ft 479 kts 117°
2026-05-04 10:29 49.69075 12.54493 35082 ft 482 kts 103°
2026-05-04 10:29 49.67775 12.64675 35064 ft 481 kts 103°
2026-05-04 10:30 49.66394 12.74740 35063 ft 481 kts 104°
2026-05-04 10:30 49.64189 12.84409 35041 ft 475 kts 120°
2026-05-04 10:31 49.60568 12.92881 35037 ft 472 kts 128°
2026-05-04 10:32 49.47505 13.21777 35026 ft 469 kts 127°
2026-05-04 10:33 49.43785 13.30046 35025 ft 469 kts 127°
2026-05-04 10:33 49.40070 13.38286 35032 ft 468 kts 127°
2026-05-04 10:34 49.36369 13.46456 35028 ft 468 kts 127°
2026-05-04 10:34 49.32641 13.54665 35027 ft 468 kts 127°
2026-05-04 10:35 49.28912 13.62854 35030 ft 468 kts 127°
2026-05-04 10:35 49.25099 13.70956 35032 ft 468 kts 129°
2026-05-04 10:36 49.21250 13.78940 35027 ft 468 kts 129°
2026-05-04 10:36 49.17379 13.86975 35029 ft 469 kts 129°
2026-05-04 10:37 49.13508 13.95018 35028 ft 469 kts 129°
2026-05-04 10:37 49.09630 14.03064 35028 ft 470 kts 128°
2026-05-04 10:39 48.97921 14.27202 32307 ft 476 kts 128°
2026-05-04 10:39 48.95941 14.31260 31544 ft 477 kts 128°
2026-05-04 10:39 48.93949 14.35327 30744 ft 478 kts 128°
2026-05-04 10:40 48.91934 14.39356 29915 ft 479 kts 129°
2026-05-04 10:40 48.89902 14.43378 29047 ft 480 kts 129°
2026-05-04 10:40 48.87896 14.47333 28436 ft 475 kts 129°
2026-05-04 10:40 48.85884 14.51303 27790 ft 471 kts 129°
2026-05-04 10:41 48.83895 14.55225 27170 ft 466 kts 129°
2026-05-04 10:41 48.81923 14.59115 26557 ft 461 kts 129°
2026-05-04 10:41 48.79995 14.62916 25943 ft 457 kts 129°
2026-05-04 10:41 48.78063 14.66722 25337 ft 452 kts 129°
2026-05-04 10:42 48.76150 14.70490 24734 ft 448 kts 129°
2026-05-04 10:42 48.74246 14.74230 24133 ft 444 kts 129°
2026-05-04 10:42 48.72368 14.77912 23525 ft 440 kts 129°
2026-05-04 10:42 48.70496 14.81570 22935 ft 435 kts 129°
2026-05-04 10:43 48.68668 14.85135 22357 ft 431 kts 129°
2026-05-04 10:44 48.57638 15.10692 18320 ft 408 kts 106°
2026-05-04 10:45 48.56969 15.14855 17733 ft 405 kts 106°
2026-05-04 10:45 48.56306 15.18984 17173 ft 403 kts 106°
2026-05-04 10:45 48.55625 15.23080 16616 ft 400 kts 107°
2026-05-04 10:45 48.54934 15.27128 16047 ft 397 kts 107°
2026-05-04 10:46 48.54236 15.31160 15496 ft 395 kts 107°
2026-05-04 10:46 48.53550 15.35112 14931 ft 392 kts 107°
2026-05-04 10:46 48.52859 15.39076 14387 ft 389 kts 107°
2026-05-04 10:46 48.52172 15.43008 13834 ft 386 kts 107°
2026-05-04 10:47 48.51679 15.46973 13357 ft 383 kts 98°
2026-05-04 10:47 48.51470 15.50965 12853 ft 381 kts 95°
2026-05-04 10:47 48.51330 15.54951 12322 ft 379 kts 95°
2026-05-04 10:47 48.51167 15.58860 11789 ft 377 kts 96°
2026-05-04 10:49 48.49713 15.84129 10241 ft 310 kts 98°
2026-05-04 10:49 48.49521 15.87337 10089 ft 303 kts 98°
2026-05-04 10:50 48.49333 15.90473 9977 ft 296 kts 98°
2026-05-04 10:51 48.44343 16.06547 7495 ft 252 kts 183°
2026-05-04 10:52 48.42664 16.06042 7290 ft 248 kts 201°
2026-05-04 10:52 48.41094 16.05000 7063 ft 246 kts 205°
2026-05-04 10:52 48.39555 16.03886 6817 ft 246 kts 205°
2026-05-04 10:54 48.29032 16.01779 5242 ft 252 kts 128°
2026-05-04 10:54 48.28186 16.04085 5084 ft 253 kts 120°
2026-05-04 10:56 48.22946 16.20208 5041 ft 231 kts 121°
2026-05-04 10:56 48.22276 16.22431 5007 ft 228 kts 118°
2026-05-04 10:56 48.21661 16.24545 4825 ft 221 kts 121°
2026-05-04 10:57 48.21001 16.26624 4509 ft 218 kts 121°
2026-05-04 10:57 48.20358 16.28617 4225 ft 212 kts 121°
2026-05-04 10:57 48.19714 16.30563 3963 ft 205 kts 121°
2026-05-04 10:57 48.19090 16.32465 3677 ft 200 kts 121°
2026-05-04 10:58 48.18499 16.34277 3400 ft 189 kts 121°
2026-05-04 10:58 48.17939 16.35986 3171 ft 175 kts 121°
2026-05-04 10:58 48.17425 16.37561 2931 ft 164 kts 121°
2026-05-04 10:58 48.16934 16.39056 2726 ft 162 kts 122°
2026-05-04 10:59 48.16439 16.40546 2472 ft 157 kts 122°
2026-05-04 10:59 48.15967 16.41991 2299 ft 155 kts 118°
2026-05-04 10:59 48.15506 16.43427 2060 ft 149 kts 118°
2026-05-04 10:59 48.15058 16.44806 1854 ft 146 kts 118°
2026-05-04 11:00 48.14622 16.46142 1696 ft 143 kts 119°
2026-05-04 11:01 48.11620 16.55362 616 ft 83 kts 115°
2026-05-04 11:02 48.11497 16.56017 608 ft 43 kts 78°
2026-05-04 11:02 48.11534 16.56129 608 ft 2 kts 38°
2026-05-04 11:05 48.11973 16.55844 608 ft 0 kts 296°